This is the latest recevied weather packets stored in our database for station/object KD4MBW. If no packets are shown the sender has not sent any weather packets the latest 1 day(s).
| Time | Temp. | Humidity | Pressure | Rain* | Wind** | Luminosity | Snow |
|---|---|---|---|---|---|---|---|
| 1778082748 | 26.11° C | 78% | 1017.4 hPa | 0 mm | - | 251 W/m² | - |
| 1778076773 | 24.44° C | 88% | 1016.5 hPa | 0 mm | - | 525 W/m² | - |
| 1778076167 | 21.11° C | 99% | 1016.3 hPa | 0 mm | - | 408 W/m² | - |
| 1778075864 | 22.22° C | 99% | 1016.2 hPa | 0 mm | - | 524 W/m² | - |
| 1778075560 | 22.22° C | 99% | 1016.3 hPa | 0 mm | - | 310 W/m² | - |
| 1778075257 | 22.22° C | 99% | 1016.4 hPa | 0 mm | - | 244 W/m² | - |
| 1778074651 | 21.67° C | 99% | 1016.5 hPa | 0 mm | - | 334 W/m² | - |
| 1778074347 | 21.11° C | 99% | 1016.4 hPa | 0 mm | - | 203 W/m² | - |
| 1778073135 | 20.56° C | 99% | 1015.9 hPa | 0 mm | - | 170 W/m² | - |
| 1778072832 | 20.56° C | 99% | 1016 hPa | 0 mm | - | 160 W/m² | - |
| 1778072529 | 20.56° C | 99% | 1015.8 hPa | 0 mm | - | 171 W/m² | - |
| 1778070716 | 20° C | 99% | 1015.6 hPa | 0 mm | - | 112 W/m² | - |
| 1778069202 | 19.44° C | 99% | 1015 hPa | 0 mm | - | 58 W/m² | - |
| 1778067992 | 18.89° C | 99% | 1014.7 hPa | 0 mm | - | 42 W/m² | - |
| 1778067690 | 18.89° C | 99% | 1014.6 hPa | 0 mm | - | 30 W/m² | - |
| 1778067085 | 18.89° C | 99% | 1014.8 hPa | 0 mm | - | 15 W/m² | - |
| 1778066781 | 18.89° C | 99% | 1014.4 hPa | 0 mm | - | 15 W/m² | - |
| 1778066176 | 18.89° C | 99% | 1014.6 hPa | 0 mm | - | 10 W/m² | - |
| 1778065874 | 18.89° C | 99% | 1014.2 hPa | 0 mm | - | 8 W/m² | - |
| 1778065571 | 19.44° C | 99% | 1014.3 hPa | 0 mm | - | 5 W/m² | - |
| 1778064662 | 19.44° C | 99% | 1014.1 hPa | 0 mm | - | 1 W/m² | - |
| 1778063754 | 19.44° C | 99% | 1014.2 hPa | 0 mm | - | 0 W/m² | - |
| 1778063451 | 18.89° C | 99% | 1014.2 hPa | 0 mm | - | 0 W/m² | - |
| 1778062543 | 18.89° C | 99% | 1013.9 hPa | 0 mm | - | 0 W/m² | - |
| 1778061636 | 18.89° C | 99% | 1014.1 hPa | 0 mm | - | 0 W/m² | - |
* Rain latest hour (hover to see other rain measurements)
** Current wind speed in m/s (hover to see current wind gust speed)